This is the latest recevied weather packets stored in our database for station/object N5ATR. If no packets are shown the sender has not sent any weather packets the latest 10 day(s).
| Time | Temp. | Humidity | Pressure | Rain* | Wind** | Luminosity | Snow |
|---|---|---|---|---|---|---|---|
| 1777669271 | 5° C | 88% | 1017.7 hPa | 0 mm | - | 112 W/m² | - |
| 1777668968 | 5° C | 86% | 1018 hPa | 0 mm | - | 136 W/m² | - |
| 1777668665 | 5° C | 86% | 1018 hPa | 0 mm | - | 108 W/m² | - |
| 1777668361 | 5.56° C | 85% | 1017.7 hPa | 0 mm | - | 143 W/m² | - |
| 1777668057 | 5° C | 85% | 1018 hPa | 0 mm | - | 147 W/m² | - |
| 1777667754 | 5° C | 85% | 1017.7 hPa | 0 mm | - | 254 W/m² | - |
| 1777667452 | 5.56° C | 87% | 1018.1 hPa | 0 mm | - | 234 W/m² | - |
| 1777667149 | 5° C | 86% | 1018 hPa | 0 mm | - | 185 W/m² | - |
| 1777666845 | 5° C | 86% | 1018.2 hPa | 0 mm | - | 116 W/m² | - |
| 1777666542 | 5° C | 86% | 1018.1 hPa | 0 mm | - | 189 W/m² | - |
| 1777666239 | 5° C | 86% | 1018.2 hPa | 0 mm | - | 216 W/m² | - |
| 1777665936 | 5° C | 87% | 1018.2 hPa | 0 mm | - | 183 W/m² | - |
| 1777665633 | 5° C | 86% | 1018.2 hPa | 0 mm | - | 111 W/m² | - |
| 1777665331 | 5° C | 86% | 1018.1 hPa | 0 mm | - | 135 W/m² | - |
| 1777665026 | 5.56° C | 86% | 1018.1 hPa | 0 mm | - | 315 W/m² | - |
| 1777664722 | 5.56° C | 86% | 1018 hPa | 0 mm | - | 317 W/m² | - |
| 1777664418 | 5° C | 86% | 1018.2 hPa | 0 mm | - | 226 W/m² | - |
| 1777664115 | 5° C | 88% | 1018.1 hPa | 0 mm | - | 183 W/m² | - |
| 1777663814 | 5.56° C | 87% | 1018.3 hPa | 0 mm | - | 215 W/m² | - |
| 1777663510 | 5° C | 88% | 1018.2 hPa | 0 mm | - | 205 W/m² | - |
| 1777663209 | 5.56° C | 88% | 1018.2 hPa | 0 mm | - | 199 W/m² | - |
| 1777662905 | 5.56° C | 87% | 1018 hPa | 0 mm | - | 292 W/m² | - |
| 1777662602 | 5.56° C | 87% | 1018.2 hPa | 0 mm | - | 250 W/m² | - |
| 1777662297 | 5.56° C | 87% | 1018.2 hPa | 0 mm | - | 217 W/m² | - |
| 1777661993 | 5° C | 87% | 1018.5 hPa | 0 mm | - | 277 W/m² | - |
* Rain latest hour (hover to see other rain measurements)
** Current wind speed in m/s (hover to see current wind gust speed)